Simultaneous Nadir Overpasses (SNOs) Predictions

Prediction of SNOs between GOES-15 and FY3D Satellite Orbit:

Table of predicted SNOs for the next 14.0 days since TLE Epoch: 3/30/2024
Index Date Time (GOES-15) GOES-15 Lat,Lon FY3D Lat,Lon Distance(km) Time Diff (sec)
1 03/30/2024 10:09:35 -0.08, 61.22 0.61, 64.20 340.40 80
2 03/31/2024 22:29:04 0.08, 61.18 0.60, 58.88 262.12 80
3 04/01/2024 22:13:14 0.09, 61.19 -0.41, 63.37 248.87 80
4 04/03/2024 10:32:51 -0.08, 61.25 -0.81, 58.01 368.87 80
5 04/04/2024 10:17:01 -0.09, 61.26 0.21, 62.50 141.82 80
6 04/05/2024 22:36:30 0.09, 61.23 0.98, 57.18 461.56 80
7 04/06/2024 22:20:39 0.09, 61.24 0.01, 61.68 49.29 80
8 04/09/2024 10:21:45 -0.09, 61.32 -0.19, 60.81 58.10 80
9 04/10/2024 10:05:55 -0.09, 61.33 0.84, 65.29 452.20 80
10 04/11/2024 22:25:23 0.08, 61.31 0.37, 59.97 152.20 80
11 04/12/2024 22:09:32 0.09, 61.33 -0.61, 64.47 357.99 80
